Salo, Minnesota
Current Conditions -  °F | °C
As of 9:05 AM on Thursday 23 Oct 2014 (Local Time) from KHZX Reporting Station
Overcast Overcast  
Wind Chill: 50°   Ceiling: 300
Heat Index: 50°   Visibility: 3mi
Dew Point: 50°   Wind: 5mph
Humidity: 100%   Direction: 230°SW
Pressure: 29.97"   Gusts: NA
Location:  46.7232°N, 93.3159°W
Report Text: KHZX 231405Z AUTO 23004KT 3SM OVC003 10/10 A2997 RMK AO2
Loading
Personal Weather Stations






























Interactive Weather Map
Tropical Storm Tracking
New forecast layout! Learn more

10-Day Weather Forecast

Advertisements
Track Severe Weather on mobile